Temp
14 14 14 14 14 14 14 14 15 15 15 15 15 15 15 15 15 16 16 16 16 16 16 16 16 17 17 17 17 17 17 17 17 17 17 17 18 18 18 18 18 18 18 17 17 16 16 16 15 15 16 16 16 16 16 15 14 14 14 14 14 13 13 13 13 13 13 13 13
13 13 13 13 14 14 14 14 14 14 14 14 14 14 14 15 15 15 15 15 15 15 15 16 16 16 16 16 16 17 17 17 17 17 17 17 17 17 17 18 18 17 17 17 16 16 16 15 15 15 15 16 16 16 15 15 14 14 13 13 13 13 13 13 13 13 13 13 13
13 13 13 13 13 13 13 14 14 14 14 14 14 14 14 14 14 14 15 15 15 15 15 15 15 15 15 16 16 16 16 17 17 17 17 17 17 17 17 17 17 17 17 16 16 16 15 15 15 15 15 15 15 15 15 14 14 14 13 13 13 13 13 13 13 13 13 13 13
12 13 13 13 13 13 13 13 13 14 14 14 14 14 14 14 14 14 14 14 15 15 15 15 15 15 15 15 16 16 16 16 17 17 17 17 17 17 17 17 17 17 17 16 15 15 15 15 15 15 15 15 15 15 15 14 14 13 13 13 13 13 13 13 13 13 13 13 13
12 12 12 13 13 13 13 13 13 13 13 13 14 14 14 14 14 14 14 14 14 15 15 15 15 15 15 15 15 16 16 16 16 17 17 17 17 17 17 17 17 17 16 15 15 14 15 15 15 15 15 15 15 15 15 14 14 13 13 13 13 13 13 13 13 13 13 13 12
12 12 12 12 12 12 13 13 13 13 13 13 13 13 14 14 14 14 14 14 14 14 15 15 15 15 15 15 15 15 16 16 16 16 17 17 17 17 17 17 17 16 15 15 14 14 14 15 15 15 15 15 15 15 14 14 14 13 13 13 13 13 13 13 13 12 12 12 12
11 12 12 12 12 12 12 12 13 13 13 13 13 13 13 13 14 14 14 14 14 14 14 15 15 15 15 15 15 16 16 16 16 16 16 17 17 17 17 17 16 15 15 14 14 14 14 14 14 14 14 14 14 14 14 14 13 13 13 13 13 13 12 12 12 12 12 12 12
11 11 11 11 12 12 12 12 12 12 13 13 13 13 13 13 13 13 14 14 14 14 14 14 15 15 15 15 15 16 16 16 16 16 16 16 16 16 16 16 15 15 14 14 14 14 14 14 14 14 14 14 14 14 14 13 13 13 13 13 12 12 12 12 12 12 11 11 11
11 11 11 11 11 12 12 12 12 12 12 12 13 13 13 13 13 13 13 13 14 14 14 14 14 14 15 15 15 15 15 15 15 15 15 15 15 15 15 14 14 14 14 14 14 14 14 14 14 14 14 14 14 13 13 13 13 13 12 12 12 12 11 11 11 11 11 11 11
11 11 11 11 11 11 11 12 12 12 12 12 12 12 12 12 13 13 13 13 13 13 13 13 13 14 14 14 14 14 14 13 13 13 13 13 13 13 13 13 13 13 14 14 14 14 14 14 14 14 13 13 13 13 12 12 13 13 12 12 12 11 11 11 11 11 10 10 10
10 11 11 11 11 11 11 11 11 11 11 11 11 12 12 12 12 12 12 12 12 12 12 12 12 12 12 12 12 12 12 12 12 12 12 12 12 12 12 13 13 13 13 13 13 13 13 13 13 13 13 12 12 12 12 12 12 12 12 11 11 11 11 11 11 10 10 10 10
10 10 11 11 10 11 11 11 11 11 11 11 11 11 11 11 12 12 12 12 11 11 11 11 11 11 11 11 11 11 11 11 11 11 11 11 11 12 12 12 13 13 13 13 13 13 13 13 13 12 12 12 12 12 12 12 11 11 11 11 11 11 11 11 11 10 10 10 10
10 10 10 10 10 10 10 10 10 10 10 10 11 11 11 11 11 11 11 11 11 11 11 11 11 10 10 10 10 10 10 10 10 11 11 11 11 11 12 12 12 12 12 12 12 12 12 12 12 12 12 12 12 11 11 11 11 10 10 10 10 10 10 10 10 10 9 9 9
9 9 9 9 9 9 9 9 9 10 10 10 10 10 10 10 10 10 10 10 10 10 10 10 10 10 10 10 10 10 10 10 10 10 11 11 11 11 11 12 12 12 12 12 11 11 11 11 11 11 11 11 11 11 10 10 10 10 10 10 9 9 9 9 9 8 8 8 8
9 9 9 9 9 9 9 9 9 9 10 10 10 10 10 10 10 10 10 10 10 10 10 10 10 10 9 10 10 10 10 10 10 10 11 11 11 11 11 11 11 11 11 11 11 11 10 10 10 10 10 10 10 10 10 10 10 10 10 9 9 8 8 8 7 7 7 7 7
9 9 9 9 9 9 9 9 9 9 10 10 10 9 9 9 9 9 9 9 9 9 9 9 9 9 9 9 10 10 10 10 10 10 10 10 10 10 10 10 10 10 10 10 10 10 10 10 10 10 10 10 9 9 9 9 9 9 9 8 8 7 7 7 6 6 6 6 6
8 9 9 9 9 9 9 9 9 9 9 9 9 8 8 8 8 8 8 8 8 8 8 8 9 9 9 9 9 9 9 9 9 9 9 9 9 10 10 10 10 10 10 10 10 9 9 9 9 9 9 9 9 9 8 8 8 8 8 7 7 6 6 6 5 5 5 5 5
8 8 9 9 8 8 8 8 9 9 9 9 8 8 8 8 8 8 8 8 8 8 8 8 8 8 9 9 9 9 9 9 9 9 9 9 9 9 9 9 9 9 9 9 9 9 9 8 8 9 9 9 8 8 8 8 8 7 7 6 6 5 5 5 4 4 4 4 4
8 9 9 8 8 8 8 8 8 8 8 8 8 8 8 8 8 7 7 7 7 8 8 8 8 8 8 8 8 8 8 8 8 8 8 8 8 8 8 8 8 8 8 8 8 8 8 8 8 8 8 8 7 7 7 7 7 6 6 5 5 4 4 4 3 4 4 4 4
8 9 9 8 8 8 8 8 8 8 8 7 7 7 8 7 7 7 7 7 7 7 8 8 8 8 8 8 8 8 7 8 8 8 7 7 8 8 8 7 7 8 8 8 8 7 7 7 7 7 7 7 7 6 6 6 6 6 5 4 4 3 3 3 3 3 4 3 3
8 8 8 8 8 8 8 8 8 8 7 7 7 7 7 7 7 7 7 7 7 7 7 8 8 7 7 7 7 7 7 7 7 7 7 7 7 7 7 7 7 7 7 7 7 6 6 6 6 6 6 6 6 6 6 5 5 5 4 3 3 3 3 3 3 3 3 3 2
8 8 8 8 8 8 8 7 7 7 7 7 7 7 7 7 7 7 7 7 7 7 7 7 7 7 7 7 7 7 7 6 6 6 6 6 6 6 6 6 6 6 6 6 6 6 6 5 5 5 5 5 5 5 5 5 4 4 3 3 3 3 3 3 2 2 2 1 1
7 8 8 8 8 7 7 7 7 7 7 7 6 7 7 7 7 7 7 7 7 7 7 7 7 7 7 7 7 6 6 6 6 6 6 6 6 5 5 5 5 5 5 5 5 5 5 5 5 5 5 5 4 4 4 4 4 3 3 3 2 2 2 1 1 1 1 1 1
7 7 8 7 7 7 7 6 6 6 6 6 6 6 7 6 6 6 6 7 7 7 7 6 6 6 6 6 6 6 6 6 6 5 5 5 5 5 5 5 5 5 4 4 4 4 5 4 4 4 4 3 3 3 3 3 3 3 3 2 1 1 0 0 0 0 0 1 1
7 7 7 7 6 6 6 6 6 6 6 5 6 6 6 6 6 6 6 6 6 6 6 6 5 5 5 5 5 5 5 5 5 5 4 4 4 4 4 4 4 4 3 3 3 4 4 4 3 3 2 2 2 2 2 2 2 2 2 1 1 0 -0 -0 -0 0 1 1 1
6 6 6 6 6 6 6 5 6 5 5 5 5 5 6 6 6 6 6 6 6 5 5 5 5 5 4 4 4 4 4 4 4 4 4 4 4 4 4 3 3 3 3 2 2 2 2 2 2 2 2 2 1 1 1 1 1 1 1 0 0 -0 -0 -0 0 1 1 1 1
6 6 6 6 6 5 5 5 5 5 5 5 5 5 5 5 5 5 5 5 5 5 4 4 4 4 4 4 4 4 4 3 3 3 3 3 3 3 3 2 2 2 2 1 1 1 1 1 1 1 2 2 1 1 1 0 0 0 0 0 -0 0 0 0 0 0 0 0 1
5 5 5 5 5 5 5 5 5 5 4 4 4 4 4 4 4 4 4 4 4 4 4 4 4 3 3 3 3 3 3 3 3 3 3 3 2 2 2 2 2 2 2 1 1 1 0 0 1 1 2 2 2 1 1 0 0 -0 -0 0 0 1 1 0 0 0 0 1 1
5 5 5 5 5 5 5 4 4 4 4 4 4 4 4 4 4 4 4 4 4 4 4 3 3 3 3 3 2 2 2 2 2 2 2 2 2 2 2 2 2 2 2 1 1 1 0 0 1 1 1 2 2 1 1 0 0 0 0 0 1 1 0 0 0 0 0 0 0
5 5 5 5 5 4 4 4 4 4 4 4 4 4 4 4 3 3 3 3 3 3 3 3 3 3 2 2 2 2 2 2 2 2 2 2 2 2 2 2 2 2 1 1 1 1 0 0 0 0 1 1 1 1 1 1 1 1 1 0 0 0 -0 0 0 0 0 0 0
5 5 5 5 4 4 4 4 4 4 4 4 4 4 4 3 3 3 3 3 3 3 3 2 2 2 2 2 2 2 2 2 2 2 2 2 2 2 2 2 2 1 1 1 1 0 0 0 0 0 1 1 1 1 1 1 1 1 0 -0 -0 -0 -0 0 0 0 0 0 0
5 5 4 4 4 4 4 4 4 4 4 4 4 4 3 3 3 3 3 3 2 2 2 2 2 2 2 2 2 2 2 2 2 2 2 2 2 2 2 1 1 1 1 1 0 0 0 0 0 0 1 1 1 1 1 1 0 -0 -0 -0 -0 -0 -0 -0 0 0 0 0 0
4 4 4 4 4 4 4 4 4 4 4 3 3 3 3 3 2 2 2 2 2 2 2 2 2 2 2 2 2 2 2 2 2 2 2 2 2 1 1 1 1 1 1 0 0 0 0 0 0 0 1 1 1 1 1 0 -0 -0 -1 -1 -1 -0 -0 -0 0 0 0 0 0
4 4 4 4 4 3 3 3 3 3 3 3 3 3 2 2 2 2 2 2 2 2 2 2 2 2 2 2 2 2 2 2 1 1 1 1 1 1 1 1 1 1 1 0 0 0 -0 -0 -0 0 1 1 1 1 0 -0 -0 -0 -0 -0 -0 -0 -0 0 0 -0 -0 -0 -0
4 4 3 3 3 3 3 3 3 3 3 3 2 2 2 2 2 2 2 1 1 1 1 1 1 1 1 1 1 1 1 1 1 1 1 1 1 1 1 1 1 1 0 0 -0 -0 -0 -0 -0 0 0 0 0 0 -0 -0 -0 -0 -0 -0 -0 -0 -0 -0 -0 -0 -0 -0 -0
4 4 4 4 3 3 3 3 3 3 2 2 2 2 2 1 1 1 1 1 1 1 1 1 1 1 1 1 1 1 1 1 1 1 1 0 0 0 0 0 0 0 0 -0 -0 -1 -1 -0 0 0 0 0 -0 -0 -0 -0 -0 -0 -0 -0 -0 -0 -0 -0 -0 -1 -1 -1 -1
4 4 4 4 3 3 3 3 2 2 2 2 2 2 1 1 1 1 1 1 1 1 1 1 1 1 1 1 1 1 1 1 1 0 0 0 -0 -0 -0 -0 -0 -0 -0 -0 -1 -1 -1 -0 0 0 0 0 -0 -0 -0 -0 -0 -0 -0 -0 -0 -1 -1 -1 -1 -1 -1 -1 -1
3 4 4 4 3 3 2 2 2 2 2 2 2 2 1 1 1 1 1 1 1 1 1 1 1 1 1 1 1 1 1 0 0 0 0 -0 -0 -1 -1 -1 -0 -0 -0 -1 -1 -1 -0 -0 -0 -0 0 0 0 0 0 0 -0 -0 -0 -0 -1 -1 -1 -1 -1 -1 -1 -1 -1
3 3 3 3 3 3 2 2 2 2 2 2 2 2 1 1 1 1 1 1 1 1 1 1 1 1 1 1 0 0 0 0 -0 -0 -0 -0 -1 -1 -1 -1 -1 -1 -1 -1 -1 -1 -1 -0 -0 -0 -0 -0 0 0 0 0 -0 -0 -1 -1 -1 -1 -1 -1 -1 -1 -1 -2 -2
3 3 3 3 3 2 2 2 2 2 1 1 2 1 1 1 1 1 1 1 1 1 1 1 1 1 1 1 0 0 -0 -1 -1 -1 -1 -0 -1 -1 -1 -1 -1 -1 -1 -1 -1 -1 -0 -0 -0 -0 -0 -0 -0 -0 0 0 -0 -0 -1 -1 -1 -1 -2 -2 -2 -2 -2 -2 -2
3 3 3 2 2 2 2 2 1 1 1 1 1 1 1 1 1 1 1 1 1 1 1 1 1 1 1 1 1 0 -0 -1 -1 -1 -1 -1 -1 -1 -1 -1 -1 -1 -1 -1 -1 -0 -0 -0 -0 -0 -0 -0 -0 -0 -0 -0 -0 -1 -1 -1 -1 -1 -2 -2 -2 -2 -2 -2 -2
Height
801 801 801 801 801 801 801 801 801 801 801 801 801 801 801 801 800 800 800 800 800 800 800 800 800 800 800 801 801 801 801 801 802 802 802 802 802 802 803 803 803 803 803 803 803 804 804 805 805 806 807 808 808 809 809 810 811 812 813 813 813 814 814 815 815 815 816 817 817
800 800 800 801 801 801 801 801 801 801 801 800 800 800 800 800 800 799 799 799 799 799 799 799 799 799 799 799 799 799 799 799 800 800 800 800 800 801 801 801 801 801 801 801 801 802 803 803 804 805 805 806 806 807 808 809 810 811 812 812 812 812 813 813 814 814 815 816 816
800 800 800 800 800 800 800 800 800 800 800 800 799 799 799 799 799 799 799 799 799 798 798 798 798 798 798 798 798 798 798 798 798 798 799 799 799 799 799 799 799 799 799 799 800 800 801 802 803 804 804 804 805 805 806 807 809 810 811 811 812 812 812 812 813 814 814 815 816
799 799 799 799 799 799 799 799 799 799 799 799 799 799 798 798 798 798 798 798 798 798 797 797 797 797 797 797 797 797 797 797 797 797 797 797 797 797 797 797 797 797 798 798 799 799 800 801 802 802 803 803 804 804 805 806 807 809 810 810 811 811 812 812 812 813 814 814 814
799 799 799 799 799 798 798 798 798 798 798 798 798 798 797 797 797 797 797 797 797 797 797 797 796 796 796 796 796 796 796 795 795 795 795 795 796 796 796 796 796 796 796 797 797 798 799 800 800 801 801 802 803 803 804 804 806 807 808 809 809 809 810 811 811 812 812 812 813
798 798 797 797 797 797 797 797 797 797 797 796 796 796 796 796 796 796 796 796 796 796 796 796 795 795 795 795 794 794 794 794 794 794 794 794 794 794 795 795 795 795 795 796 797 797 798 799 799 800 800 801 801 802 802 803 804 806 806 807 807 808 809 809 809 810 811 811 812
796 796 796 796 796 796 796 795 795 795 795 795 795 795 795 795 795 795 795 795 795 795 795 795 794 794 794 794 793 793 793 793 793 793 793 793 793 793 793 794 794 794 794 795 796 796 797 798 798 799 799 800 800 801 801 802 803 804 804 805 806 807 807 808 809 809 810 810 811
795 795 795 795 794 794 794 794 794 794 794 794 794 794 794 794 794 794 794 794 794 794 794 794 793 793 793 792 792 792 791 791 791 791 791 792 792 792 792 792 793 793 794 794 795 795 796 797 797 798 798 799 799 799 800 801 801 802 803 804 805 806 807 807 808 809 809 810 810
794 794 794 794 794 793 793 793 793 793 793 793 793 793 793 793 793 793 793 793 793 793 792 792 792 791 791 791 790 790 790 790 790 790 790 790 790 791 791 791 792 792 793 794 794 795 795 796 796 797 797 797 798 798 799 801 802 802 803 803 804 805 806 807 807 808 809 809 810
793 793 793 793 792 792 792 792 792 792 792 792 792 792 792 792 792 792 792 792 792 791 791 791 791 790 790 789 789 789 789 789 789 789 789 789 790 790 790 791 791 792 792 793 794 794 794 795 795 796 796 796 797 798 799 800 802 802 803 803 804 804 805 806 807 807 808 809 809
793 792 792 792 792 791 791 791 791 791 791 791 791 791 791 791 791 791 791 791 791 790 790 790 790 789 789 789 789 788 788 788 788 789 789 789 789 789 790 790 791 791 792 792 793 794 794 794 794 795 795 796 797 798 799 800 801 802 802 803 803 804 804 805 806 807 808 808 809
792 792 791 791 791 791 791 791 791 791 791 791 791 791 791 791 791 791 790 790 790 790 789 789 789 789 789 788 788 788 788 788 788 788 789 789 789 789 790 790 790 791 791 792 793 793 793 794 794 794 795 796 797 798 798 799 800 801 801 802 803 803 804 805 805 806 807 807 808
791 791 791 791 791 790 790 790 791 791 791 791 791 791 791 790 790 790 790 790 790 789 789 789 789 789 789 788 788 788 788 788 789 789 789 789 789 789 790 790 790 791 791 792 792 793 793 793 794 794 794 795 796 797 798 799 800 801 801 802 802 803 804 804 805 805 806 807 808
791 791 791 790 790 790 790 790 791 791 791 791 790 790 790 790 790 790 790 789 789 789 789 789 789 789 789 789 789 789 789 789 789 789 789 789 789 789 789 790 790 790 791 791 792 792 793 793 793 794 794 795 796 797 798 799 800 801 801 802 802 803 804 804 805 805 806 807 807
791 791 791 790 790 790 790 790 790 791 791 791 790 790 790 790 790 790 789 789 789 789 789 789 789 789 789 789 789 789 789 788 788 788 788 789 789 789 789 789 790 790 791 791 792 792 793 793 794 794 794 795 796 797 798 799 800 800 801 802 803 804 804 804 805 806 806 807 807
791 791 791 791 791 791 791 791 791 791 791 790 790 790 790 790 790 789 789 789 789 789 789 789 789 789 789 789 789 789 789 788 788 788 788 788 789 789 789 789 790 790 791 791 792 792 793 794 794 794 795 796 797 797 798 799 799 800 801 802 804 804 805 805 805 806 807 807 808
790 791 791 791 791 791 791 791 791 791 791 790 790 790 790 790 790 790 789 789 789 789 789 789 789 789 789 789 789 789 789 789 789 789 789 789 789 789 789 790 790 791 791 791 792 793 794 794 795 795 796 796 797 798 798 799 799 800 801 803 804 804 805 805 806 806 807 808 808
790 791 791 791 791 790 791 791 791 791 791 791 791 790 790 790 790 790 790 790 790 789 789 789 789 789 789 789 789 789 789 789 789 789 789 789 789 789 790 790 791 791 792 792 793 793 794 795 795 796 796 797 798 798 799 799 799 800 801 803 804 804 805 806 806 807 807 808 808
790 791 791 791 791 791 791 791 791 791 791 791 791 791 791 791 791 790 790 790 790 790 790 790 790 790 790 789 789 789 789 789 789 789 790 790 790 790 791 791 792 792 793 793 794 794 795 795 796 796 797 797 798 798 799 799 800 801 802 803 804 805 805 806 806 807 807 808 808
790 791 791 791 791 791 791 791 791 791 791 791 791 791 791 791 791 791 791 791 791 791 791 791 791 790 790 790 790 790 790 790 790 790 791 791 791 792 792 792 793 793 794 794 795 795 796 796 797 797 797 798 798 798 799 799 800 801 802 804 804 805 805 806 807 807 808 808 809
790 790 790 791 791 791 791 791 791 791 791 791 791 791 791 791 791 791 791 791 791 791 791 791 791 791 791 791 791 791 791 791 791 792 792 792 793 793 793 794 794 794 795 795 796 796 797 797 798 798 798 798 798 799 799 799 800 801 803 804 804 805 805 806 807 808 808 809 810
790 790 790 790 791 791 791 791 791 791 791 791 791 791 791 792 792 792 792 792 792 792 792 792 792 792 792 792 792 792 792 792 792 793 793 793 794 794 794 795 795 795 796 796 797 797 797 798 798 798 799 799 799 799 799 800 800 802 803 804 804 805 806 807 807 808 809 810 811
790 790 790 790 790 791 791 791 791 791 791 791 792 792 792 792 792 792 792 792 792 792 793 793 793 793 793 793 793 793 793 793 793 794 794 794 794 795 795 796 796 796 797 797 797 798 798 798 798 799 799 799 799 800 800 800 801 802 803 804 804 805 806 807 808 809 809 810 811
790 790 790 790 790 790 791 791 791 791 791 792 792 792 792 792 792 792 792 792 793 793 793 793 793 793 793 794 794 794 794 794 794 794 794 795 795 796 796 797 797 797 797 798 798 798 798 799 799 799 799 800 800 800 801 801 802 803 803 804 805 806 807 808 809 809 810 811 812
790 790 790 790 790 790 791 791 791 791 791 792 792 792 792 792 792 793 793 793 793 793 793 793 794 794 794 794 794 794 794 794 794 795 795 796 796 796 797 797 797 798 798 798 799 799 799 799 799 799 800 800 800 801 801 802 803 803 804 804 805 806 807 808 809 810 810 811 812
789 790 790 790 790 790 791 791 791 791 791 792 792 792 792 792 793 793 793 793 793 793 794 794 794 794 794 794 794 795 795 795 795 795 796 796 797 797 797 798 798 798 799 799 799 800 800 800 800 800 800 801 801 801 802 803 804 804 805 805 806 807 808 809 809 810 811 811 812
789 789 790 790 790 790 791 791 791 791 792 792 792 792 792 792 793 793 793 793 793 794 794 794 794 794 794 795 795 795 795 796 796 796 797 797 797 798 798 798 799 799 800 800 801 801 801 801 801 801 801 801 801 802 803 804 804 805 806 806 807 807 808 809 809 810 811 812 812
789 789 790 790 790 790 791 791 791 791 792 792 792 792 792 793 793 793 793 793 793 794 794 794 794 795 795 795 796 796 796 796 797 797 798 798 799 799 799 800 800 801 801 802 802 802 802 802 802 802 802 802 802 803 804 804 805 806 807 807 808 808 809 809 810 810 811 811 812
789 789 790 790 790 791 791 791 791 792 792 792 792 793 793 793 793 793 793 794 794 794 794 795 795 795 796 796 796 797 797 798 798 798 799 799 800 800 801 801 801 802 802 802 802 802 803 803 803 803 803 803 803 804 804 805 806 807 807 808 808 809 809 809 810 810 811 811 812
789 789 790 790 790 791 791 791 792 792 792 793 793 793 793 794 794 794 794 794 794 794 795 795 796 796 797 797 797 798 798 799 799 800 800 800 801 801 802 802 802 803 803 803 803 803 803 803 804 804 804 804 804 805 805 806 807 807 808 809 809 809 809 810 810 810 811 812 812
789 789 790 790 790 791 791 792 792 792 793 793 793 794 794 794 794 794 794 795 795 795 796 796 796 797 797 798 798 799 799 800 800 801 801 801 802 802 802 803 803 803 804 804 804 804 804 804 804 804 805 805 805 806 806 807 807 808 809 809 810 810 810 810 810 810 811 812 813
789 789 790 790 790 791 791 792 792 793 793 794 794 794 794 794 795 795 795 795 796 796 797 797 797 798 798 799 799 800 800 801 801 802 802 802 802 803 803 803 804 804 804 804 804 804 804 805 805 805 806 806 806 806 807 807 808 809 809 810 810 810 810 810 810 811 811 812 813
789 789 790 790 791 791 792 792 793 793 793 794 794 794 794 795 795 796 796 796 797 797 797 798 798 799 799 800 800 801 801 802 802 802 803 803 803 803 804 804 804 804 805 805 805 805 805 805 806 806 806 806 807 807 807 808 809 809 810 810 810 811 811 811 811 811 811 812 813
789 789 790 790 791 791 792 792 793 793 794 794 794 795 795 795 796 796 797 797 797 798 798 799 799 799 800 800 801 801 802 802 803 803 803 804 804 804 804 804 805 805 805 805 805 806 806 806 806 806 807 807 807 807 808 809 809 810 810 810 810 811 811 811 811 811 812 812 813
789 789 790 790 791 791 792 793 793 793 794 794 795 795 796 796 796 797 797 798 798 798 799 799 800 800 801 801 802 802 802 803 803 803 804 804 804 804 805 805 805 806 806 806 806 806 806 806 807 807 807 807 808 808 809 809 810 810 810 810 810 810 811 811 811 811 812 813 813
789 789 790 791 791 792 792 793 793 794 794 794 795 796 796 797 797 797 798 798 798 799 799 800 800 801 801 802 802 802 803 803 803 804 804 804 804 805 805 806 806 806 806 807 807 807 807 807 807 807 807 808 808 809 809 810 810 810 810 810 810 810 811 811 811 812 812 813 813
789 790 790 791 791 792 792 793 793 794 794 795 795 796 796 797 797 798 798 798 799 799 799 800 801 801 802 802 803 803 803 804 804 804 804 804 805 805 805 806 806 807 807 807 807 807 807 807 807 808 808 808 809 809 809 810 810 810 810 810 810 811 811 811 812 812 813 813 814
789 790 790 791 791 792 792 793 793 794 794 795 795 796 796 797 798 798 799 799 799 799 800 800 801 801 802 802 803 803 804 804 804 804 804 805 805 805 806 806 807 807 807 807 807 807 807 807 808 808 809 809 809 809 809 809 810 810 810 810 811 811 811 812 812 813 813 814 814
789 790 790 791 791 792 792 793 793 794 794 795 795 796 797 797 798 798 799 799 799 800 800 801 801 802 803 803 803 804 804 804 804 804 805 805 805 806 806 806 807 807 807 807 807 807 807 808 808 809 809 809 809 809 809 809 809 810 810 811 811 811 812 812 813 813 814 814 814
790 790 791 791 791 792 792 793 794 794 794 795 795 796 797 797 798 799 799 799 800 800 801 801 802 802 803 803 804 804 804 804 804 805 805 805 806 806 806 806 807 807 807 807 807 808 808 808 808 809 809 809 809 809 809 809 810 810 811 811 811 812 812 813 813 813 814 814 814
790 790 791 791 792 792 793 793 794 794 795 795 796 796 797 798 798 799 799 799 800 801 801 802 802 803 803 803 804 804 804 804 804 805 805 806 806 806 806 807 807 807 807 808 808 808 808 808 808 809 809 809 809 809 809 810 810 810 811 811 812 812 813 813 813 814 814 814 814
Wind_Speed
7 7 8 8 9 9 9 10 10 11 11 12 12 13 13 14 14 15 16 16 16 17 18 18 19 19 20 20 20 19 19 19 19 19 19 20 21 22 22 23 23 23 23 24 24 26 27 27 27 27 26 26 25 25 24 23 20 18 18 19 19 17 16 15 16 17 17 16 15
7 7 8 8 9 10 10 10 11 11 11 11 11 11 12 12 12 13 13 13 13 14 15 15 16 17 17 18 18 19 19 18 18 18 18 18 19 19 20 21 22 22 22 23 24 25 26 26 26 26 25 24 24 23 23 22 19 17 17 17 15 13 12 13 14 15 16 15 14
8 9 9 10 10 11 11 11 11 11 11 11 11 11 11 11 12 12 12 12 12 13 13 14 15 15 16 16 17 18 18 18 18 18 18 18 18 18 19 20 20 21 21 22 22 23 24 24 25 24 24 23 22 22 22 20 16 14 13 13 11 11 11 11 13 14 15 14 14
10 10 10 11 11 12 12 13 13 13 13 13 13 12 12 12 12 12 12 12 13 13 13 14 14 15 15 16 16 17 17 18 19 19 19 18 18 18 18 18 19 19 19 20 20 21 22 22 23 23 22 21 21 21 21 18 15 13 12 11 10 10 11 12 14 15 16 15 15
10 11 11 12 12 13 13 14 14 14 15 15 14 14 14 14 14 14 14 14 14 14 14 14 15 15 15 16 16 16 17 18 18 19 19 18 18 18 17 17 17 17 17 17 17 18 20 21 21 20 19 19 19 20 20 17 15 13 13 12 11 12 13 15 16 17 17 17 17
10 11 11 12 12 13 14 14 15 15 16 16 16 15 15 15 15 15 15 15 15 15 15 15 15 15 15 15 16 16 17 17 18 18 18 18 18 17 17 16 16 15 15 15 15 17 18 19 19 18 18 18 19 20 19 17 16 15 15 14 13 14 15 17 18 18 18 17 17
11 11 11 12 12 13 13 14 15 15 16 16 16 16 16 16 15 15 15 15 16 15 15 15 15 15 15 15 15 15 16 17 17 18 18 18 18 17 17 16 15 14 13 13 14 16 17 17 17 17 18 18 19 20 19 17 17 16 16 14 14 15 15 16 17 17 16 16 16
11 11 11 11 12 12 13 13 14 14 15 15 15 15 15 15 15 14 15 15 15 15 15 15 14 14 14 14 14 14 15 16 17 17 18 18 17 17 16 15 14 12 12 13 15 16 17 17 17 18 19 20 21 20 19 17 16 16 15 14 14 14 15 15 15 15 15 15 15
11 11 11 11 11 11 12 12 12 13 13 13 13 13 13 13 13 13 13 13 14 14 14 14 14 13 13 13 14 14 14 15 15 16 16 16 16 16 15 14 13 12 13 14 15 16 17 18 18 19 21 21 21 20 18 16 15 14 13 14 14 15 15 15 15 14 14 13 13
10 10 10 10 10 10 11 11 11 11 12 11 11 11 11 11 11 11 11 12 12 13 13 12 12 12 12 12 12 12 12 12 12 13 13 14 13 13 12 12 12 13 14 15 16 17 18 19 19 20 21 20 19 18 16 14 13 13 13 14 16 16 15 15 14 13 13 12 12
9 9 9 9 9 9 9 9 10 10 10 9 9 9 9 9 9 9 10 10 10 10 10 10 9 9 9 9 9 9 9 10 11 11 11 11 11 11 11 12 13 14 16 16 17 18 18 18 19 19 18 17 16 15 14 13 14 14 15 16 16 16 15 14 13 12 12 12 12
9 8 8 8 7 7 7 7 8 8 7 7 7 7 7 7 8 8 8 8 7 7 7 7 7 7 6 6 6 6 6 7 8 8 9 9 9 10 11 13 14 15 16 16 16 17 17 17 17 17 16 15 14 13 13 14 15 16 17 17 16 15 14 13 12 12 12 12 12
7 7 6 6 6 6 5 5 5 5 5 5 6 6 6 7 7 7 6 6 6 6 6 6 5 5 4 4 4 4 4 5 6 6 7 8 9 10 11 12 13 14 15 15 15 14 14 14 15 15 15 15 14 14 15 16 16 17 17 16 15 14 13 13 12 12 11 11 11
6 5 4 4 3 3 4 4 4 4 4 5 5 5 6 6 6 6 5 5 5 4 4 4 3 3 3 3 3 4 5 5 6 6 7 8 9 10 11 12 13 13 13 13 13 13 13 14 15 17 17 18 17 16 16 16 15 14 13 13 12 12 12 11 10 10 10 9 9
4 3 2 2 2 2 3 4 4 4 4 4 5 5 5 5 5 5 4 4 4 4 4 3 2 1 1 2 3 4 5 6 6 7 8 9 9 10 11 11 12 12 12 13 13 13 15 16 17 18 18 18 18 17 16 15 13 11 10 10 10 10 10 9 9 9 9 9 10
3 2 2 2 2 3 4 4 4 4 4 4 4 4 5 5 5 4 4 4 5 5 4 3 3 3 3 4 4 5 6 7 7 8 9 10 10 11 11 12 12 13 13 14 15 15 17 18 18 17 17 17 16 16 15 13 12 10 10 9 9 9 9 9 9 9 10 10 11
3 3 3 3 4 4 5 5 4 4 3 3 3 4 4 4 4 4 4 4 4 4 4 4 4 5 6 7 6 7 7 9 9 10 11 12 13 13 13 14 14 15 15 16 16 17 17 17 17 16 15 15 14 14 13 12 11 11 10 10 10 10 10 10 11 11 12 12 13
4 4 3 4 4 5 5 4 4 3 3 3 3 3 3 4 3 3 3 3 3 4 5 6 7 7 8 9 9 9 9 10 11 12 13 14 14 15 15 15 15 16 16 16 16 17 16 16 15 14 13 13 13 12 12 12 11 11 11 11 12 12 13 13 13 13 13 14 14
4 3 3 4 4 4 4 4 3 3 3 3 2 2 2 2 2 2 3 3 3 4 6 7 8 9 9 10 10 11 11 12 12 13 13 14 14 15 15 16 16 15 15 15 15 15 15 14 14 13 12 12 12 12 12 12 12 13 13 14 15 15 15 15 15 15 14 14 14
4 3 3 3 3 3 3 3 3 3 3 2 2 2 2 2 2 3 4 5 5 5 6 7 8 8 9 9 10 11 12 12 13 13 13 13 14 14 14 15 15 15 14 14 13 13 13 13 12 12 12 12 12 13 13 14 15 15 16 17 17 17 17 17 16 15 15 14 14
5 4 3 3 2 3 3 3 2 2 3 4 5 5 5 4 4 5 6 6 6 6 6 7 7 8 9 9 10 12 13 13 14 14 14 14 14 14 13 13 14 13 13 13 12 12 12 12 12 12 12 13 14 15 16 17 18 18 19 19 19 18 18 17 16 16 15 14 13
6 5 4 3 2 2 2 2 2 3 4 6 7 7 6 5 5 6 7 8 8 7 7 7 8 9 9 10 11 12 13 14 14 14 14 14 13 13 12 11 12 12 12 12 12 12 13 13 13 14 14 15 16 18 19 19 20 20 20 19 19 18 18 17 17 16 15 14 13
6 5 3 3 2 2 2 2 3 4 5 6 7 7 7 7 6 7 8 9 8 8 8 7 8 9 10 10 10 11 12 12 13 13 12 12 12 11 11 10 11 12 13 13 13 13 14 14 15 16 17 18 19 19 20 20 21 21 20 20 19 19 18 18 17 17 16 15 15
5 4 3 3 3 3 3 4 5 5 6 7 7 7 7 7 7 7 8 8 8 7 7 7 8 9 9 9 9 9 9 10 11 12 12 11 11 11 11 11 11 12 13 13 13 13 14 16 17 18 18 19 20 20 20 20 20 20 20 20 20 19 19 18 17 17 16 16 16
5 4 4 3 4 4 4 5 6 7 8 8 8 7 7 7 7 7 7 7 7 7 8 8 9 9 9 9 9 9 9 10 11 12 12 12 12 12 12 12 12 12 12 12 12 13 14 16 18 19 19 20 20 20 20 20 20 20 20 20 20 20 19 18 17 16 16 16 16
5 5 4 4 4 5 6 7 8 8 8 8 8 8 8 8 7 7 7 7 8 8 9 10 10 10 10 10 10 11 11 12 12 13 13 13 12 12 11 12 12 12 12 11 11 12 14 16 17 18 19 20 20 20 20 20 19 19 19 20 20 19 19 18 17 16 15 15 15
6 5 5 5 5 7 7 8 8 9 9 9 9 9 9 8 8 8 8 9 9 9 9 10 11 11 11 11 12 13 14 14 14 14 13 12 12 13 14 14 14 13 12 11 11 11 13 14 16 17 18 19 19 20 20 20 19 19 19 19 19 18 18 18 17 16 16 15 15
6 6 6 6 7 8 8 8 9 9 9 9 9 9 8 8 9 9 9 10 9 10 10 11 11 12 13 14 15 16 16 16 16 15 14 14 15 16 16 15 15 13 12 12 12 12 12 13 14 15 16 18 19 19 19 20 19 19 19 18 18 18 17 17 17 16 16 15 15
7 7 7 7 8 8 8 9 9 9 9 9 8 8 8 8 9 10 10 10 10 10 11 12 13 14 16 17 18 18 17 17 17 16 16 16 16 16 16 15 15 14 13 12 12 12 12 12 13 14 15 16 18 19 20 20 20 19 19 18 18 17 17 16 15 15 14 14 13
7 7 8 8 9 9 9 9 9 8 8 7 7 7 7 8 8 9 10 10 11 12 13 14 16 17 18 19 19 18 18 17 17 17 17 16 16 16 16 15 15 14 13 12 12 12 13 13 14 14 15 16 17 19 19 20 19 19 18 18 17 16 16 15 15 14 13 12 11
8 8 8 9 9 9 9 8 8 7 7 6 6 6 6 7 8 9 10 11 13 14 15 16 18 19 19 18 18 18 17 17 17 17 16 16 16 16 16 15 15 14 13 13 13 13 13 14 15 15 16 17 17 18 18 19 18 18 17 17 16 15 15 14 14 13 12 11 10
8 8 9 9 9 9 8 8 7 7 7 6 6 6 6 7 8 9 10 12 14 16 17 17 18 18 18 18 17 17 17 17 17 17 16 16 17 16 16 15 14 13 13 12 13 13 14 15 16 16 16 16 16 17 17 18 18 17 17 16 15 14 13 13 12 11 11 9 8
9 9 9 9 9 9 8 8 8 7 7 7 7 7 7 8 9 10 12 14 15 16 17 17 17 17 17 17 16 16 16 16 16 16 16 16 16 16 15 14 13 12 12 12 13 13 14 15 16 16 16 16 16 16 17 17 17 17 16 15 14 13 12 12 11 10 9 8 7
9 9 9 9 9 9 9 8 8 8 8 8 8 9 9 10 11 13 14 15 16 16 16 16 16 16 16 16 16 16 16 16 16 16 15 15 15 15 15 14 13 12 12 12 13 13 14 14 15 15 15 15 15 16 16 16 16 15 15 14 13 12 11 10 10 9 8 8 7
8 9 9 9 9 9 9 9 9 9 9 10 10 11 11 12 14 15 16 16 16 16 16 16 16 16 15 15 15 16 16 17 17 16 16 15 15 14 14 13 13 12 12 12 13 13 14 14 14 15 15 15 15 15 14 14 14 14 13 12 12 11 10 9 9 8 8 7 6
8 8 9 9 9 9 10 10 10 10 11 11 12 12 13 14 15 15 16 16 16 17 17 16 16 16 16 16 16 16 16 17 17 17 16 15 15 15 14 13 13 12 12 12 13 13 13 13 13 13 13 13 13 13 13 12 12 12 11 11 11 10 9 9 8 8 7 7 6
7 8 8 9 10 10 11 11 11 12 12 13 13 14 14 15 16 16 16 16 17 17 17 17 16 16 16 16 16 16 16 16 16 16 15 15 15 15 14 14 13 12 12 12 12 12 12 12 12 11 11 11 11 11 11 11 11 11 11 10 10 10 9 8 8 7 7 7 7
6 7 8 9 10 11 11 12 13 14 14 14 14 15 15 16 16 16 16 16 17 17 17 17 17 16 16 16 16 15 15 14 14 14 14 13 14 14 14 14 13 11 11 11 11 12 11 11 10 10 9 9 9 9 9 10 10 10 10 10 10 9 9 8 7 7 7 8 8
6 7 9 10 11 12 12 13 14 15 15 16 15 15 16 16 16 16 15 15 15 16 17 17 16 16 15 14 14 14 13 12 12 12 12 13 13 13 14 14 12 11 10 10 11 11 11 11 10 9 8 8 8 8 9 9 10 11 11 10 10 9 8 8 7 7 7 8 9
6 8 9 10 11 12 13 14 14 15 16 16 16 16 16 16 16 16 15 14 14 15 15 16 15 14 13 12 12 12 11 11 11 11 11 12 12 12 13 13 12 12 10 10 10 10 11 10 10 9 9 8 8 8 9 9 10 11 11 10 10 9 8 7 7 6 7 8 8
7 8 9 11 11 12 14 15 15 16 16 16 16 16 16 16 16 16 16 15 14 14 15 15 14 13 11 11 10 10 10 10 10 10 10 10 11 11 12 12 12 12 11 10 10 10 10 10 10 10 9 9 9 9 9 10 11 11 11 10 9 8 8 7 6 5 6 6 7
Wind_Direction
263 265 266 265 266 266 267 268 270 272 274 275 276 276 276 276 276 275 274 274 274 273 273 272 270 269 267 264 262 259 257 257 257 257 258 259 260 261 261 261 261 260 259 257 255 253 252 250 247 246 247 247 246 243 238 232 231 238 248 251 248 245 244 246 247 247 245 244 246
268 266 266 266 265 266 267 268 270 273 275 277 278 278 279 278 278 278 278 278 277 277 277 275 273 271 269 266 263 259 256 254 253 253 254 256 258 260 260 260 259 258 257 255 254 252 250 248 246 245 245 246 243 238 232 229 233 244 252 246 238 234 236 242 246 248 247 245 245
274 272 269 268 268 268 269 270 270 272 274 276 277 278 279 279 279 280 280 280 280 280 279 279 278 277 276 273 268 264 260 257 255 254 254 255 257 259 260 260 258 257 255 254 253 252 250 248 246 245 244 242 238 232 227 227 232 239 239 232 233 240 246 246 247 246 244 240 238
279 277 276 274 272 272 271 271 272 273 274 275 276 276 277 277 278 279 279 279 280 281 282 283 283 283 282 279 275 270 265 261 258 257 256 257 258 260 261 261 259 257 255 253 252 251 250 247 245 243 241 238 234 229 224 223 227 230 229 229 238 249 253 248 242 237 233 229 227
285 282 280 278 277 275 275 274 275 276 276 276 277 277 277 277 277 278 279 280 281 281 283 284 286 286 285 283 279 275 270 265 261 259 257 258 259 261 262 261 260 257 255 252 251 249 246 243 240 238 235 233 230 225 222 223 225 224 223 228 237 246 246 241 234 228 223 220 219
292 288 286 284 282 281 280 279 279 279 279 279 280 280 280 279 280 280 281 282 282 283 284 286 287 288 288 285 281 277 271 267 263 260 258 258 259 260 261 261 259 256 253 249 245 241 238 235 232 229 227 225 223 220 219 220 219 216 216 224 236 241 239 232 226 221 217 213 211
298 295 293 291 289 287 285 284 282 282 281 281 281 281 281 281 281 282 282 282 284 286 287 288 289 289 288 285 280 275 270 266 262 259 257 257 257 258 259 259 257 254 248 241 235 231 227 225 223 221 220 218 215 213 212 212 210 209 213 221 230 233 229 221 217 213 209 206 205
301 299 297 296 294 292 290 288 286 285 284 282 282 281 281 280 280 280 281 283 285 287 289 289 288 287 285 282 278 273 268 263 260 258 256 256 256 256 256 256 254 249 240 231 224 220 218 217 216 215 214 212 209 206 207 212 213 214 214 214 215 215 212 206 204 201 199 199 200
301 300 299 299 296 294 292 289 287 285 284 282 281 280 279 278 277 278 279 281 284 286 287 286 285 283 282 279 276 271 266 261 258 255 254 253 253 253 253 251 246 237 227 219 214 212 210 210 210 210 209 206 203 202 206 215 218 219 214 205 199 197 197 195 193 191 191 192 193
302 301 300 298 295 292 289 287 285 284 283 281 280 277 275 273 273 274 276 279 282 284 284 283 282 281 280 277 274 269 263 257 251 249 248 247 246 244 240 236 228 220 213 208 206 206 206 206 206 205 204 202 202 202 205 211 219 219 211 198 192 188 188 188 189 189 190 191 192
304 302 299 295 292 289 287 283 282 281 280 277 275 272 269 268 268 271 275 278 280 281 282 283 283 281 279 277 273 267 260 252 247 243 240 237 233 227 221 216 211 207 203 202 203 204 205 206 206 204 202 202 205 204 202 206 212 210 200 190 187 187 187 189 193 196 198 200 202
303 301 298 293 290 288 286 282 279 276 274 269 266 264 262 262 264 267 271 275 276 278 282 285 286 284 280 276 270 263 255 247 242 239 234 228 222 216 211 206 204 202 200 201 204 206 208 209 207 204 201 197 198 194 191 194 193 188 182 179 182 186 191 195 199 203 207 211 212
302 298 294 290 288 287 284 278 272 266 261 257 256 256 258 261 262 265 268 271 274 277 281 286 290 291 287 278 266 256 248 242 239 237 231 224 218 213 210 207 205 203 201 202 204 205 205 203 198 194 189 183 184 183 181 180 177 175 173 174 178 185 192 196 199 203 208 211 211
298 293 289 284 283 279 271 258 248 247 247 251 254 259 261 263 264 264 265 266 268 268 271 276 284 290 287 272 255 242 238 239 237 232 224 218 214 211 208 206 205 202 199 197 196 194 189 182 177 172 168 167 168 169 170 170 171 173 175 177 179 182 185 187 190 194 196 194 191
286 276 268 264 260 252 241 231 231 240 248 254 263 268 269 264 261 258 254 250 246 244 247 251 242 237 238 230 221 218 218 220 220 215 207 201 199 197 195 193 192 190 187 183 179 176 171 166 162 161 160 159 158 159 161 164 167 172 177 180 180 178 175 169 170 172 172 170 167
249 229 220 226 232 231 228 227 233 243 253 260 272 274 268 260 254 246 234 226 224 225 226 221 199 183 183 186 189 192 195 197 195 189 182 176 175 175 174 172 170 169 168 166 164 163 161 158 156 156 155 154 154 155 157 159 161 164 167 168 168 164 157 152 151 151 153 155 154
207 200 203 215 224 227 227 229 233 240 249 259 264 267 266 263 256 241 224 216 216 211 198 183 177 176 176 175 173 176 179 178 173 167 162 158 157 157 157 156 155 155 156 156 155 154 153 153 153 154 154 154 153 153 154 154 154 154 154 154 153 149 145 142 142 142 143 145 142
188 193 206 218 223 224 222 220 219 225 237 248 254 265 277 282 272 247 225 216 213 192 172 164 166 168 168 166 165 166 166 161 157 154 151 149 148 148 148 148 148 150 151 152 151 150 149 150 151 154 155 155 153 152 150 149 147 147 147 147 145 142 138 136 135 136 136 134 131
172 185 213 220 222 218 210 199 195 201 215 236 246 258 269 279 260 217 189 177 176 169 161 156 157 157 157 156 154 154 152 150 147 145 144 143 143 143 143 143 145 146 148 148 148 147 147 147 149 150 151 150 148 146 145 144 143 143 143 142 140 136 133 131 131 131 131 130 126
165 185 213 221 216 200 185 173 172 176 180 177 163 148 138 131 148 149 144 140 142 147 148 147 145 145 146 147 144 141 139 138 137 135 134 134 134 135 136 137 139 141 143 143 143 143 143 143 144 144 144 143 142 142 142 142 140 140 139 138 135 132 130 129 129 129 129 127 124
172 191 209 207 193 174 162 152 154 163 159 148 138 131 125 120 124 126 124 123 125 129 132 132 132 133 135 137 134 130 127 125 123 121 120 120 120 121 124 128 131 133 134 135 136 137 138 140 141 141 141 141 141 140 140 140 138 137 136 134 131 130 129 128 127 125 122 119 115
178 190 199 196 185 171 160 156 171 172 159 145 136 130 127 124 125 122 120 119 118 117 115 115 120 124 126 128 127 125 121 119 115 113 111 109 108 109 112 116 120 123 125 126 128 131 135 138 140 140 140 140 139 139 139 138 137 135 133 132 130 129 128 125 122 118 115 111 109
182 190 199 208 208 196 185 182 186 177 161 146 136 130 128 127 127 125 124 123 119 114 110 111 116 119 121 122 123 122 121 118 114 110 107 105 104 104 107 110 114 118 121 124 127 131 135 137 138 139 140 139 139 138 137 137 136 134 133 131 129 127 124 121 117 115 113 112 110
192 197 204 212 210 197 184 177 172 164 154 142 133 128 126 126 127 128 129 128 125 122 120 121 122 122 121 120 120 121 120 119 115 111 109 108 109 110 112 114 114 115 118 122 128 133 136 137 138 138 139 139 138 137 137 136 136 134 132 130 127 124 122 120 119 118 118 116 114
197 198 199 199 192 181 171 163 158 151 144 137 131 128 128 128 129 130 130 129 129 128 129 128 126 125 122 120 119 120 120 118 116 113 111 110 111 113 115 115 113 110 110 114 123 131 136 138 138 138 137 137 137 136 136 136 135 133 131 129 127 125 124 122 121 121 120 119 117
193 191 186 180 175 168 161 156 151 146 141 136 133 133 132 132 132 133 132 129 127 128 128 126 124 123 122 122 122 121 119 116 114 112 110 107 107 107 106 104 101 100 101 106 116 126 133 137 138 137 137 136 135 134 133 132 132 131 130 128 128 127 126 124 121 119 118 117 116
186 181 175 169 166 161 157 154 150 146 142 139 138 136 136 136 136 136 134 130 128 127 127 125 124 123 124 124 122 118 115 112 109 106 104 103 101 99 97 95 94 96 100 107 113 121 129 135 137 137 137 134 133 131 130 129 128 127 126 126 127 127 125 122 118 116 115 113 113
180 175 169 165 162 160 157 154 151 148 145 143 141 139 138 138 137 135 133 131 130 129 128 126 125 126 125 121 117 113 109 107 104 102 101 101 102 102 101 101 103 106 110 114 116 119 124 130 134 134 133 131 129 127 126 126 125 124 124 124 124 123 120 117 115 114 113 112 113
176 171 166 162 159 159 160 158 154 151 147 144 141 139 137 135 133 131 130 130 130 129 127 125 125 124 120 116 113 111 109 107 106 105 106 107 109 110 110 111 112 114 115 117 118 119 121 124 127 128 127 126 124 122 121 121 121 121 121 120 119 117 116 115 114 113 112 112 113
174 169 165 163 161 160 159 158 155 150 144 139 135 132 130 128 127 126 127 127 127 125 124 124 122 119 115 114 114 113 113 112 112 112 113 114 115 116 116 116 116 115 115 116 117 118 118 119 120 121 122 121 120 119 118 118 118 117 116 116 115 115 115 114 113 111 110 110 112
173 171 169 167 163 160 157 155 150 144 137 132 129 126 123 120 118 120 123 123 122 122 123 123 120 118 117 117 117 117 117 118 118 117 117 117 117 118 118 117 116 115 115 115 117 118 117 116 116 116 116 116 116 116 116 116 115 113 112 112 111 111 109 108 106 105 105 105 106
175 175 174 169 163 158 155 151 145 140 136 135 134 130 123 116 116 118 120 122 122 123 124 124 122 121 120 121 121 121 122 122 121 120 119 118 118 117 117 116 116 116 116 117 118 118 116 113 112 112 112 113 114 114 114 113 112 111 110 110 109 107 104 103 102 102 103 103 103
176 176 173 167 161 156 153 149 146 145 145 146 143 137 129 123 123 123 124 125 126 126 126 126 125 124 124 124 125 126 127 127 125 124 123 121 118 116 115 114 115 116 117 118 119 118 116 113 111 111 111 111 111 112 112 112 112 112 112 112 110 108 106 105 105 105 105 105 106
176 173 169 165 160 156 154 153 154 156 154 151 145 139 135 132 131 130 129 130 131 131 131 131 130 129 129 130 131 131 130 130 130 129 128 126 121 117 114 113 114 116 117 118 119 118 117 115 113 113 112 112 111 112 113 114 115 116 116 114 113 111 109 108 108 108 107 107 109
178 173 168 165 162 159 159 159 160 160 156 149 143 139 137 137 135 134 135 136 137 136 135 135 134 134 134 135 135 134 131 129 130 131 132 131 127 121 116 114 114 116 118 119 120 120 119 118 117 116 115 114 114 114 116 117 117 116 115 114 112 110 109 108 107 107 108 110 115
181 176 170 167 164 163 163 162 162 160 154 148 143 140 139 139 139 140 141 143 141 139 137 137 138 138 137 137 136 135 132 130 130 131 133 133 129 124 119 117 116 117 119 121 123 123 122 121 119 117 116 116 117 117 117 116 114 112 110 108 107 105 105 105 105 106 109 115 120
183 178 173 168 166 165 165 165 162 158 153 149 146 145 144 144 144 145 148 148 144 141 140 140 139 139 138 137 135 135 135 135 134 134 134 133 130 126 122 120 119 120 122 125 125 125 123 119 117 116 116 117 117 117 115 112 109 107 105 103 101 100 100 101 103 106 110 114 117
181 177 173 169 166 166 166 165 161 157 153 150 150 150 150 149 147 148 150 150 146 143 142 141 140 140 140 140 138 138 139 141 140 138 136 134 132 130 127 124 124 124 126 127 125 122 119 116 115 114 113 113 113 113 112 109 107 105 102 100 99 98 98 99 103 108 111 113 112
175 175 173 170 167 166 165 163 159 156 154 152 153 154 154 152 150 151 152 154 152 149 146 143 142 142 144 145 144 142 142 144 144 140 137 135 135 134 132 129 127 127 126 125 122 119 116 115 114 113 110 108 106 106 107 108 106 104 102 101 100 99 99 101 106 112 116 115 113
170 173 174 171 169 166 164 161 159 157 156 155 155 157 157 155 153 153 155 157 156 155 151 148 146 148 150 151 149 147 145 144 141 137 135 135 137 138 136 132 129 126 123 121 120 119 117 116 115 114 112 108 104 103 105 106 107 106 104 102 100 99 100 101 107 116 122 123 120
167 173 175 174 171 168 165 161 159 159 159 159 159 160 160 159 158 156 156 156 157 157 156 154 153 153 154 155 154 151 146 139 134 130 129 133 136 135 132 128 125 121 119 118 119 120 120 119 117 115 113 109 106 105 105 106 106 106 105 103 100 99 98 100 106 117 128 133 130